TimeAEST,TemperatureF,Dew PointF,Humidity,Sea Level PressureIn,VisibilityMPH,Wind Direction,Wind SpeedMPH,Gust SpeedMPH,PrecipitationIn,Events,Conditions,WindDirDegrees,DateUTC
12:00 AM,76,68,69,30.02,,South,11.5,,,,,180,2013-04-25 14:00:00
12:00 AM,75.2,68.0,78,30.01,6.2,South,11.5,-,N/A,,Partly Cloudy,180,2013-04-25 14:00:00
12:30 AM,75.2,66.2,73,30.01,6.2,South,9.2,-,N/A,,Partly Cloudy,180,2013-04-25 14:30:00
1:00 AM,76,67,67,30.01,,South,10.4,,,,,170,2013-04-25 15:00:00
1:00 AM,75.2,68.0,78,30.01,6.2,South,10.4,-,N/A,,Partly Cloudy,170,2013-04-25 15:00:00
1:30 AM,75.2,68.0,78,30.01,6.2,South,9.2,-,N/A,,Partly Cloudy,180,2013-04-25 15:30:00
2:00 AM,75.2,68.0,78,29.98,6.2,South,9.2,-,N/A,,Unknown,170,2013-04-25 16:00:00
2:30 AM,75.2,68.0,78,29.98,6.2,South,10.4,-,N/A,,Partly Cloudy,180,2013-04-25 16:30:00
3:00 AM,75,67,71,29.98,,South,11.5,,,,,180,2013-04-25 17:00:00
3:00 AM,75.2,68.0,78,29.98,6.2,South,11.5,-,N/A,,Scattered Clouds,180,2013-04-25 17:00:00
3:30 AM,75.2,68.0,78,29.95,6.2,South,10.4,-,N/A,,Scattered Clouds,170,2013-04-25 17:30:00
4:00 AM,75,67,71,29.97,,South,10.4,,,,,170,2013-04-25 18:00:00
4:00 AM,75.2,68.0,78,29.95,6.2,South,10.4,-,N/A,,Scattered Clouds,170,2013-04-25 18:00:00
4:30 AM,75.2,66.2,73,29.95,6.2,South,11.5,-,N/A,,Scattered Clouds,170,2013-04-25 18:30:00
5:00 AM,75.2,68.0,78,29.95,6.2,South,10.4,-,N/A,,Scattered Clouds,180,2013-04-25 19:00:00
5:30 AM,71.6,68.0,88,29.98,6.2,SE,11.5,-,N/A,,Scattered Clouds,130,2013-04-25 19:30:00
6:00 AM,75,67,70,29.98,19,South,11.5,,,,Partly Cloudy,180,2013-04-25 20:00:00
6:00 AM,75.2,68.0,78,29.98,6.2,South,11.5,-,N/A,,Partly Cloudy,180,2013-04-25 20:00:00
6:30 AM,75.2,68.0,78,29.98,6.2,South,11.5,-,N/A,,Mostly Cloudy,170,2013-04-25 20:30:00
7:00 AM,75,67,71,30.01,,SSE,12.7,,,,,160,2013-04-25 21:00:00
7:00 AM,75.2,68.0,78,30.01,6.2,SSE,12.7,-,N/A,,Mostly Cloudy,160,2013-04-25 21:00:00
7:30 AM,77.0,68.0,74,30.01,6.2,SSE,12.7,-,N/A,,Mostly Cloudy,160,2013-04-25 21:30:00
8:00 AM,77.0,68.0,74,30.01,6.2,South,12.7,-,N/A,,Mostly Cloudy,170,2013-04-25 22:00:00
8:30 AM,78.8,68.0,69,30.01,6.2,South,12.7,-,N/A,,Mostly Cloudy,170,2013-04-25 22:30:00
9:00 AM,80,67,57,30.03,19,SSE,13.8,,,,Partly Cloudy,160,2013-04-25 23:00:00
9:00 AM,80.6,68.0,65,30.01,6.2,SSE,13.8,-,N/A,,Mostly Cloudy,160,2013-04-25 23:00:00
9:30 AM,80.6,66.2,61,30.04,6.2,South,11.5,-,N/A,,Mostly Cloudy,170,2013-04-25 23:30:00
10:00 AM,83,67,50,30.04,,SSE,13.8,,,,,160,2013-04-26 00:00:00
10:00 AM,82.4,68.0,62,30.04,6.2,SSE,13.8,-,N/A,,Mostly Cloudy,160,2013-04-26 00:00:00
10:30 AM,84.2,68.0,58,30.01,6.2,SSE,15.0,-,N/A,,Mostly Cloudy,150,2013-04-26 00:30:00
11:00 AM,86.0,66.2,51,30.01,6.2,SE,18.4,-,N/A,,Mostly Cloudy,140,2013-04-26 01:00:00
11:30 AM,86.0,66.2,51,30.01,6.2,SE,20.7,-,N/A,,Mostly Cloudy,130,2013-04-26 01:30:00
12:00 PM,87,65,38,29.99,19,SE,24.2,,,,Partly Cloudy,140,2013-04-26 02:00:00
12:00 PM,86.0,64.4,48,29.98,6.2,SE,24.2,-,N/A,,Mostly Cloudy,140,2013-04-26 02:00:00
12:30 PM,86.0,64.4,48,29.98,6.2,SE,24.2,-,N/A,,Mostly Cloudy,140,2013-04-26 02:30:00
1:00 PM,86,64,37,29.97,,SE,24.2,,,,,140,2013-04-26 03:00:00
1:00 PM,86.0,64.4,48,29.95,6.2,SE,24.2,-,N/A,,Overcast,140,2013-04-26 03:00:00
1:30 PM,86.0,66.2,51,29.95,6.2,SE,21.9,-,N/A,,Overcast,140,2013-04-26 03:30:00
2:00 PM,86.0,66.2,51,29.95,6.2,SE,24.2,-,N/A,,Overcast,140,2013-04-26 04:00:00
2:30 PM,86.0,68.0,55,29.95,6.2,SE,21.9,-,N/A,,Overcast,130,2013-04-26 04:30:00
3:00 PM,84,69,51,29.95,19,SE,19.6,,,,Partly Cloudy,140,2013-04-26 05:00:00
3:00 PM,84.2,68.0,58,29.95,6.2,SE,19.6,-,N/A,,Overcast,130,2013-04-26 05:00:00
3:30 PM,82.4,68.0,62,29.95,6.2,SE,21.9,-,N/A,,Overcast,140,2013-04-26 05:30:00
3:46 PM,80.6,68.0,65,29.95,6.2,SSE,17.3,28.8,N/A,,Overcast,150,2013-04-26 05:46:00
4:00 PM,82,69,56,29.97,,SSE,19.6,,,,,150,2013-04-26 06:00:00
4:00 PM,82.4,69.8,66,29.95,6.2,SSE,19.6,-,N/A,Rain,Light Rain Showers,150,2013-04-26 06:00:00
4:30 PM,77.0,69.8,78,29.98,6.2,South,13.8,-,N/A,,Mostly Cloudy,180,2013-04-26 06:30:00
5:00 PM,77.0,69.8,78,29.98,6.2,South,10.4,-,N/A,,Mostly Cloudy,170,2013-04-26 07:00:00
5:30 PM,78.8,68.0,69,29.98,6.2,South,15.0,-,N/A,,Mostly Cloudy,170,2013-04-26 07:30:00
6:00 PM,76,69,73,29.98,,South,15.0,,,,Overcast,170,2013-04-26 08:00:00
6:00 PM,77.0,69.8,78,29.98,6.2,South,15.0,-,N/A,,Mostly Cloudy,170,2013-04-26 08:00:00
6:30 PM,75.2,69.8,83,29.98,6.2,South,12.7,-,N/A,,Mostly Cloudy,170,2013-04-26 08:30:00
7:00 PM,75,69,77,30.00,,South,13.8,,,,,170,2013-04-26 09:00:00
7:00 PM,75.2,69.8,83,29.98,6.2,South,13.8,-,N/A,,Mostly Cloudy,170,2013-04-26 09:00:00
8:00 PM,75.2,68.0,78,30.01,6.2,South,12.7,-,N/A,,Mostly Cloudy,170,2013-04-26 10:00:00
8:30 PM,75.2,68.0,78,30.01,6.2,South,11.5,-,N/A,,Mostly Cloudy,170,2013-04-26 10:30:00
9:00 PM,76,67,68,30.02,,South,12.7,,,,,170,2013-04-26 11:00:00
9:00 PM,75.2,68.0,78,30.01,6.2,South,12.7,-,N/A,,Mostly Cloudy,170,2013-04-26 11:00:00
9:30 PM,75.2,68.0,78,30.01,6.2,SSE,15.0,-,N/A,,Mostly Cloudy,160,2013-04-26 11:30:00
9:50 PM,75.2,69.8,83,30.04,4.3,SE,12.7,-,N/A,Rain,Rain Showers,140,2013-04-26 11:50:00
10:00 PM,74,71,86,30.04,,SE,13.8,,,,,140,2013-04-26 12:00:00
10:00 PM,73.4,69.8,88,30.01,4.3,SE,13.8,-,N/A,Rain,Rain Showers,140,2013-04-26 12:00:00
10:18 PM,73.4,69.8,88,30.01,2.5,SE,13.8,-,N/A,Rain,Rain Showers,140,2013-04-26 12:18:00
10:30 PM,71.6,69.8,94,30.01,3.7,SE,16.1,-,N/A,Rain,Light Rain Showers,140,2013-04-26 12:30:00
11:00 PM,73.4,69.8,88,30.01,6.2,South,10.4,-,N/A,,Mostly Cloudy,180,2013-04-26 13:00:00
11:30 PM,75.2,68.0,78,29.98,6.2,South,11.5,-,N/A,,Scattered Clouds,170,2013-04-26 13:30:00